Regional Weather Roundup
Issued by NWS

Home | Current Version | Previous Version | Graphics & Text | Print | Product List | Glossary Off
Versions: 1 2 3 4 5 6 7 8 9 10 11 12 13 14 15 16 17 18 19 20 21 22 23 24 25 26 27 28 29 30 31 32 33 34 35 36 37 38 39 40 41 42 43 44 45 46 47 48 49 50

189
ASUS44 KJAN 200103
RWRMS

MISSISSIPPI HOURLY WEATHER ROUNDUP
NATIONAL WEATHER SERVICE JACKSON MS
700 PM CST FRI DEC 19 2014

NOTE: "FAIR: INDICATES FEW OR NO CLOUDS BELOW 12,000 FEET WITH NO
SIGNIFICANT WEATHER AND/OR OBSTRUCTIONS TO VISIBILITY.

MSZ001>002-007>008-010>013-018>021-025>028-034>036-200200-
NORTHWEST MISSISSIPPI

CITY           SKY/WX    TMP DP  RH WIND       PRES   REMARKS
CLARKSDALE     CLOUDY    45  39  81 N5        30.23R
CLEVELAND      CLOUDY    44  41  90 NE7       30.21R
GREENWOOD      CLOUDY    44  44 100 N6        30.21R
GREENVILLE     CLOUDY    45  41  86 NE9       30.20R
GRENADA        CLOUDY    43  41  93 CALM      30.22R
OLIVE BRANCH   CLOUDY    39  37  93 NE6       30.22S WCI  35
OXFORD         MOCLDY    39  36  87 N6        30.25R WCI  35
TUNICA         LGT RAIN  43  37  81 NE5       30.22F
$$

MSZ003>006-009-014>017-022>024-029>033-037>039-200200-
NORTHEAST MISSISSIPPI

CITY           SKY/WX    TMP DP  RH WIND       PRES   REMARKS
COLUMBUS AFB   LGT RAIN  44  41  91 NE5       30.19F
CORINTH        LGT RAIN  41  34  75 W3        30.22R
GOLDN TRIANGLE CLOUDY    43  39  87 NE5       30.18F
STARKVILLE     LGT RAIN  43  41  93 E5        30.18S
TUPELO         LGT RAIN  42  37  82 NE6       30.19S
$$

MSZ040-058-200200-
CENTRAL MISSISSIPPI

CITY           SKY/WX    TMP DP  RH WIND       PRES   REMARKS
JACKSON INTL   LGT RAIN  46  43  89 E9        30.15F
JACKSON HAWKNS LGT RAIN  45  43  93 E12       30.14F
MERIDIAN KEY   LGT RAIN  44  42  93 NE7       30.18F
MERIDIAN NAS   LGT RAIN  44  42  93 NE3       30.19S FOG
RAYMOND        FAIR      45  41  87 E5        30.14F FOG
VICKSBURG      CLOUDY    47  44  90 NE7       30.14R
$$

MSZ059>079-200200-
SOUTH MISSISSIPPI

CITY           SKY/WX    TMP DP  RH WIND       PRES   REMARKS
HATTIESBURG    RAIN      47  45  93 E7        30.15S FOG
MCCOMB         LGT RAIN  46  43  89 NE7       30.11S
NATCHEZ        CLOUDY    46  43  87 E10       30.10F
PINE BELT      CLOUDY    46  43  87 NE7       30.15S
$$

MSZ080>082-200200-
COASTAL MISSISSIPPI

CITY           SKY/WX    TMP DP  RH WIND       PRES   REMARKS
BILOXI         HVY RAIN  48  48 100 E14       30.08F FOG
PASCAGOULA     LGT RAIN  48  46  93 NE10      30.11F
GULFPORT       LGT RAIN  48  46  93 NE10      30.09F
$$



USA.gov is the U.S. government's official web portal to all federal, state and local government web resources and services.